This is the latest recevied weather packets stored in our database for station/object KC5DAQ-25. If no packets are shown the sender has not sent any weather packets the latest 10 day(s).
| Time | Temp. | Humidity | Pressure | Rain* | Wind** | Luminosity | Snow |
|---|---|---|---|---|---|---|---|
| 1778358827 | 30.56° C | 70% | 999.9 hPa | 0 mm | - | 155 W/m² | - |
| 1778358765 | 30.56° C | 70% | 999.9 hPa | 0 mm | - | 148 W/m² | - |
| 1778358706 | 30.56° C | 70% | 999.9 hPa | 0 mm | - | 148 W/m² | - |
| 1778358645 | 30.56° C | 72% | 1000 hPa | 0 mm | - | 148 W/m² | - |
| 1778358585 | 30.56° C | 72% | 1000 hPa | 0 mm | - | 160 W/m² | - |
| 1778358525 | 30.56° C | 72% | 1000 hPa | 0 mm | - | 160 W/m² | - |
| 1778358464 | 30.56° C | 73% | 999.9 hPa | 0 mm | - | 160 W/m² | - |
| 1778358405 | 30.56° C | 73% | 1000 hPa | 0 mm | - | 185 W/m² | - |
| 1778358344 | 30.56° C | 73% | 1000.1 hPa | 0 mm | - | 185 W/m² | - |
| 1778358284 | 30.56° C | 73% | 1000.1 hPa | 0 mm | - | 295 W/m² | - |
| 1778358225 | 30.56° C | 73% | 1000.1 hPa | 0 mm | - | 295 W/m² | - |
| 1778358165 | 30° C | 72% | 1000.1 hPa | 0 mm | - | 295 W/m² | - |
| 1778358106 | 30° C | 72% | 1000.2 hPa | 0 mm | - | 244 W/m² | - |
| 1778358046 | 30° C | 72% | 1000.1 hPa | 0 mm | - | 244 W/m² | - |
| 1778357985 | 30.56° C | 73% | 1000.2 hPa | 0 mm | - | 244 W/m² | - |
| 1778357925 | 30.56° C | 73% | 1000.2 hPa | 0 mm | - | 244 W/m² | - |
| 1778357866 | 30.56° C | 73% | 1000.2 hPa | 0 mm | - | 244 W/m² | - |
| 1778357805 | 30.56° C | 73% | 1000.2 hPa | 0 mm | - | 274 W/m² | - |
| 1778357745 | 30.56° C | 72% | 1000.2 hPa | 0 mm | - | 274 W/m² | - |
| 1778357684 | 30.56° C | 72% | 1000.2 hPa | 0 mm | - | 274 W/m² | - |
| 1778357625 | 30.56° C | 75% | 1000.2 hPa | 0 mm | - | 274 W/m² | - |
| 1778357565 | 30.56° C | 75% | 1000.2 hPa | 0 mm | - | 188 W/m² | - |
| 1778357506 | 30.56° C | 75% | 1000.3 hPa | 0 mm | - | 188 W/m² | - |
| 1778357442 | 30.56° C | 72% | 1000.1 hPa | 0 mm | - | 188 W/m² | - |
| 1778357381 | 30° C | 72% | 1000.2 hPa | 0 mm | - | 248 W/m² | - |
* Rain latest hour (hover to see other rain measurements)
** Current wind speed in m/s (hover to see current wind gust speed)